#timestamp,LO_Frequency,Hit 
1502740815.0,286047001.5,N
1502740816.0,286047001.5,N
1502740835.8,286047001.3,N
1502740855.6,286047006.9,N
1502740875.4,286047006.1,N
1502740895.3,286047012.4,N
1502740915.1,286047012.3,N
1502740935.8,286047009.5,N
1502740955.7,286047009.6,N
1502740975.5,286047011.5,N
1502740995.3,286047011.9,N
1502741015.2,286047009.7,N
1502741035.9,286047013.8,N
1502741055.7,286047013.4,N
1502741075.6,286047011.7,N
1502741095.4,286047013.4,N
1502741115.2,286047013.0,N
1502741135.0,286047014.3,N
1502741135.9,286047014.3,N
1502741155.8,286047014.2,N
1502741175.6,286047016.1,N
1502741195.4,286047016.6,N
1502741215.3,286047014.1,N
1502741235.1,286047017.1,N
1502741255.8,286047015.1,N
1502741275.7,286047014.9,N
1502741295.5,286047015.0,N
1502741315.3,286047015.1,N
1502741335.2,286047015.6,N
1502741355.9,286047015.5,P
1502741375.7,286047004.1,N
1502741395.6,286047004.4,N
1502741415.4,286047004.8,N
1502741435.2,286047005.2,N
1502741455.1,286047003.2,N
1502741456.0,286047003.2,N
1502741475.8,286047004.3,N
1502741495.6,286047002.8,N
1502741515.5,286047003.7,N
1502741535.3,286047001.8,N
1502741555.1,286047004.0,N
1502741575.8,286047005.4,N
1502741595.7,286047005.7,N
1502741615.5,286047003.4,N
1502741635.3,286047003.4,N
1502741655.2,286047004.9,N
1502741675.9,286047003.7,N
1502741695.7,286047004.7,N
1502741715.6,286047007.5,N
1502741735.4,286047005.6,N
1502741755.2,286047003.8,N
1502741775.1,286047005.7,N
1502741776.0,286047005.7,N
1502741795.8,286047006.7,N
1502741815.6,286047008.8,P
1502741835.5,286047001.3,N
1502741855.3,286047000.0,N
1502741875.1,286047000.6,N
1502741895.9,286047000.8,N
1502741915.7,286047000.6,N
1502741935.5,286047001.1,N
1502741955.4,286046998.3,N
1502741975.2,286046999.6,N
1502741995.0,286046999.0,N
1502741995.9,286046999.0,N
1502742015.8,286046998.6,N
1502742035.6,286047000.4,N
1502742055.4,286046999.7,N
1502742075.2,286047001.0,N
1502742095.1,286047000.8,N
1502742096.0,286047000.8,N
1502742115.8,286047000.7,N
1502742135.6,286047002.3,N
1502742155.5,286047002.3,N
1502742175.3,286047002.6,N
1502742195.1,286046998.6,N
1502742215.9,286046999.9,N
1502742235.7,286046998.1,N
1502742255.5,286046999.4,N
1502742275.4,286046999.1,N
1502742295.2,286047000.9,N
1502742315.0,286047000.5,N
1502742315.9,286047000.5,N
1502742335.8,286047000.2,N
1502742355.6,286047000.6,N
1502742375.4,286047000.6,N
1502742395.3,286046998.7,N
1502742415.1,286047000.5,N
1502742416.0,286047000.5,N
1502742435.8,286047001.2,N
1502742455.7,286046999.5,N
1502742475.5,286046996.5,P
1502742495.3,286046999.4,N
1502742515.2,286046998.9,N
1502742535.9,286046999.6,N
1502742555.7,286046999.1,N
1502742575.5,286046998.4,N
1502742595.4,286046998.8,N
1502742615.2,286047002.8,N
1502742635.0,286047001.5,N
1502742635.9,286047001.5,N
1502742655.8,286047003.1,N
1502742675.6,286047003.5,N
1502742695.4,286046999.8,N
1502742715.3,286047001.4,N
1502742735.1,286047003.4,N
1502742736.0,286047003.4,N
1502742755.8,286047002.5,N
1502742775.7,286046998.2,N
1502742795.5,286047000.0,N
1502742815.3,286046999.3,N
1502742835.2,286047002.0,N
1502742855.9,286047003.5,N
1502742875.7,286047005.2,N
1502742895.6,286047004.7,N
1502742915.4,286047006.0,N
1502742935.2,286047005.3,N
1502742955.0,286047006.5,N
1502742955.9,286047006.5,N
1502742975.8,286047008.5,P
1502742995.6,286047004.5,N
1502743015.4,286047006.8,N
1502743035.3,286047007.4,N
1502743055.1,286047005.7,N
1502743075.8,286047004.8,N
1502743095.7,286047005.3,N
1502743115.5,286047003.3,N
1502743135.3,286047005.5,N
1502743155.2,286047003.0,N
1502743175.9,286047003.1,N
1502743195.7,286047004.7,N
1502743215.6,286047005.3,N
1502743235.4,286047005.6,P
1502743255.2,286046995.3,P
1502743275.1,286046997.5,N
1502743276.0,286046997.5,N
1502743295.8,286046994.1,N
1502743315.6,286046994.4,N
1502743335.5,286046991.7,N
1502743355.3,286046992.1,N
1502743375.1,286046993.4,N
1502743395.9,286046995.7,N
1502743415.7,286046996.4,N
1502743435.5,286046997.3,N
1502743455.3,286046997.2,N
1502743475.2,286046997.5,N
1502743495.0,286047000.3,N
1502743495.9,286047000.3,N
1502743515.7,286046999.1,N
1502743535.6,286046992.1,N
1502743555.4,286046992.4,N
1502743575.2,286046992.1,N
1502743595.1,286046990.9,N
1502743596.0,286046990.9,N
1502743615.8,286046991.3,N
1502743635.6,286046993.2,N
1502743655.5,286046990.8,N
1502743675.3,286046990.5,N
1502743695.1,286046994.7,N
1502743715.9,286046995.6,N
1502743735.7,286046995.3,N
1502743755.5,286046997.1,N
1502743775.3,286046998.7,N
1502743795.2,286046998.5,N
1502743815.0,286047000.9,N
1502743815.9,286047000.9,N
1502743835.7,286046999.4,N
1502743855.6,286046998.3,N
1502743875.4,286046999.4,N
1502743895.2,286047002.7,N
1502743915.1,286047001.0,N
1502743916.0,286047001.0,N
1502743935.8,286047000.3,N
1502743955.6,286047000.9,N
1502743975.5,286047000.2,N
1502743995.3,286047001.8,N
1502744015.1,286047001.9,N
1502744035.9,286047002.5,N
1502744055.7,286047002.6,N
1502744075.5,286047002.7,N
1502744095.4,286047001.5,N
1502744115.2,286047003.1,N
1502744135.0,286047003.0,N
1502744135.9,286047003.0,N
1502744155.8,286047006.1,N
1502744175.6,286047006.7,N
1502744195.4,286047003.3,N
1502744215.2,286047001.8,N
1502744235.1,286047003.7,N
1502744236.0,286047003.7,N
1502744255.8,286047006.0,N
1502744275.6,286047005.9,N
1502744295.5,286047004.4,N
1502744315.3,286047005.7,N
1502744335.1,286047003.4,N
1502744355.9,286047009.0,P
1502744375.7,286047005.6,N
1502744395.5,286047004.4,N
